Home   Weather   Charlestown   Past weeks

Flag for Saint Kitts and Nevis Past Weather in Charlestown, Saint Kitts and Nevis — Yesterday and Last 2 Weeks

Now
81 °F

Warm.


Feels Like: 85 °F
Forecast: 82 / 84 °F
Wind: 18 mph from East

Location: Roosevelt Airport / Saint Eustatius

Current Time: Sep 29, 2016 at 1:01:34 AM

Latest Report: Sep 28, 2016 at 11:55 PM


Visibility: N/A

Pressure: 29.95 "Hg

Humidity: 79%

Dew Point: 73 °F

Location of CharlestownLocation

Past Weather in Charlestown — Graph

°F

Charlestown Temperature Yesterday

Maximum temperature yesterday: 88 °F (at 9:55 AM)
Minimum temperature yesterday: 75 °F (at 3:55 PM)
Average temperature yesterday: 82 °F

High & Low Weather Summary for the Past Weeks

 TemperatureHumidityPressure
High91 °F (Sep 23, 11:55 AM)100% (Sep 18, 4:55 AM)30.04 "Hg (Sep 18, 4:55 AM)
Low75 °F (Sep 18, 4:55 AM)59% (Sep 23, 11:55 AM)29.83 "Hg (Sep 21, 3:55 AM)
Average83 °F78%29.95 "Hg
* Reported Sep 13 11:55 PM — Sep 28 11:55 PM, Charlestown, Weather by CustomWeather, © 2016

Note: Actual official high and low records may vary slightly from our data, if they occured in-between our weather recording intervals... More about our weather records

Advertising

Charlestown Weather History for the Previous 24 Hours

Scroll right to see more
 ConditionsComfort  
Time TempWeatherWind HumidityBarometerVisibility
11:55 PM
Wed, Sep 28
81 °FWarm.18 mph79%29.95 "HgN/A
10:55 PM81 °FWarm.25 mph84%29.98 "HgN/A
9:55 PM77 °FWarm.15 mph89%30.01 "HgN/A
8:55 PM79 °FWarm.21 mph84%29.98 "HgN/A
7:55 PM82 °FWarm.20 mph79%29.95 "HgN/A
6:55 PM82 °FWarm.22 mph79%29.95 "HgN/A
5:55 PM81 °FWarm.17 mph84%29.95 "HgN/A
4:55 PM77 °FWarm.16 mph94%29.95 "HgN/A
3:55 PM75 °FMild.20 mph94%29.98 "HgN/A
2:55 PM79 °FWarm.17 mph79%29.92 "HgN/A
1:55 PM79 °FWarm.17 mph94%29.95 "HgN/A
12:55 PM88 °FWarm.24 mph70%29.95 "HgN/A
11:55 AM86 °FWarm.22 mph75%29.98 "HgN/A
10:55 AM84 °FWarm.17 mph84%30.01 "HgN/A
9:55 AM88 °FWarm.21 mph70%30.01 "HgN/A
8:55 AM86 °FWarm.23 mph70%30.01 "HgN/A
7:55 AM84 °FWarm.20 mph74%29.98 "HgN/A
6:55 AM84 °FWarm.18 mph74%29.98 "HgN/A
5:55 AM82 °FWarm.21 mph79%29.98 "HgN/A
4:55 AM82 °FWarm.20 mph79%29.95 "HgN/A
3:55 AM82 °FWarm.18 mph79%29.95 "HgN/A
2:55 AM84 °FWarm.20 mph74%29.95 "HgN/A
1:55 AM84 °FWarm.21 mph74%29.95 "HgN/A
Weather by CustomWeather, © 2016

See weather overviewHow to use our weather pages